TimeEST,TemperatureF,Dew PointF,Humidity,Sea Level PressureIn,VisibilityMPH,Wind Direction,Wind SpeedMPH,Gust SpeedMPH,PrecipitationIn,Events,Conditions,WindDirDegrees,DateUTC
12:54 AM,30.9,30.0,96,29.92,-9999.0,North,-9999.0,-,N/A,,Unknown,0,2013-02-24 05:54:00
1:54 AM,30.9,30.0,96,29.91,-9999.0,North,-9999.0,-,0.01,,Unknown,0,2013-02-24 06:54:00
2:54 AM,30.0,30.0,100,29.87,-9999.0,North,-9999.0,-,N/A,,Unknown,0,2013-02-24 07:54:00
3:54 AM,30.0,30.0,100,29.85,-9999.0,North,-9999.0,-,N/A,,Unknown,0,2013-02-24 08:54:00
4:54 AM,30.9,30.0,96,29.84,-9999.0,North,-9999.0,-,N/A,,Unknown,0,2013-02-24 09:54:00
5:54 AM,30.0,28.9,96,29.85,-9999.0,North,-9999.0,-,N/A,,Unknown,0,2013-02-24 10:54:00
6:54 AM,30.0,28.9,96,29.86,-9999.0,North,-9999.0,-,N/A,,Unknown,0,2013-02-24 11:54:00
7:54 AM,30.9,30.0,96,29.84,-9999.0,North,-9999.0,-,N/A,,Unknown,0,2013-02-24 12:54:00
8:54 AM,30.9,30.0,96,29.84,-9999.0,North,-9999.0,-,N/A,,Unknown,0,2013-02-24 13:54:00
9:54 AM,33.1,30.0,89,29.82,-9999.0,North,-9999.0,-,N/A,,Unknown,0,2013-02-24 14:54:00
10:54 AM,33.1,30.0,89,29.81,-9999.0,North,-9999.0,-,N/A,,Unknown,0,2013-02-24 15:54:00
11:54 AM,34.0,30.9,89,29.80,-9999.0,North,-9999.0,-,N/A,,Unknown,0,2013-02-24 16:54:00
12:54 PM,34.0,30.0,85,29.78,-9999.0,North,-9999.0,-,N/A,,Unknown,0,2013-02-24 17:54:00
1:54 PM,34.0,30.9,89,29.77,-9999.0,North,-9999.0,-,N/A,,Unknown,0,2013-02-24 18:54:00
2:54 PM,34.0,30.9,89,29.78,-9999.0,North,-9999.0,-,N/A,,Unknown,0,2013-02-24 19:54:00
3:54 PM,34.0,32.0,92,29.78,-9999.0,North,-9999.0,-,0.01,,Unknown,0,2013-02-24 20:54:00
4:54 PM,33.1,32.0,96,29.79,-9999.0,North,-9999.0,-,0.03,,Unknown,0,2013-02-24 21:54:00
5:54 PM,33.1,32.0,96,29.80,-9999.0,North,-9999.0,-,0.01,,Unknown,0,2013-02-24 22:54:00
6:54 PM,32.0,32.0,100,29.83,-9999.0,North,-9999.0,-,0.02,,Unknown,0,2013-02-24 23:54:00
7:54 PM,32.0,30.9,96,29.86,-9999.0,North,-9999.0,-,0.01,,Unknown,0,2013-02-25 00:54:00
8:54 PM,32.0,30.0,92,29.88,-9999.0,North,-9999.0,-,N/A,,Unknown,0,2013-02-25 01:54:00
9:54 PM,32.0,30.0,92,29.89,-9999.0,North,-9999.0,-,N/A,,Unknown,0,2013-02-25 02:54:00
10:54 PM,30.9,28.9,92,29.90,-9999.0,North,-9999.0,-,N/A,,Unknown,0,2013-02-25 03:54:00
11:54 PM,30.9,28.9,92,29.91,-9999.0,North,-9999.0,-,N/A,,Unknown,0,2013-02-25 04:54:00